Location: Banksville Park
(38.5557°N, 75.1182°W)
Time: 04:02:45
(UTC+00:00)

Envisat - Pass Details

Date: 29 November 2020
Orbit: 764 x 766 km, 98.1° (Epoch: 16 January)

Event Time Altitude Azimuth Distance (km) Brightness Sun altitude
Rises 22:47:40 0° 190° (S) 3,217 6.6 -13.0°
Reaches altitude 10° 22:50:10 10° 200° (SSW) 2,295 6.0 -13.5°
Maximum altitude 22:54:43 33° 263° (W) 1,271 4.9 -14.4°
Drops below altitude 10° 22:59:17 10° 327° (NNW) 2,310 5.7 -15.2°
Sets 23:01:49 0° 337° (NNW) 3,241 6.3 -15.7°
